| time (UTC) | temp F | wind direction | speed MPH | gust MPH | rain 1hr in | rain 24hr in | rain mn in | humidity % | barometer mb |
| 20260503003054 | 0 | 155 | 3.0 | 6.0 | 0.00 | 0.00 | 0.00 | 1004.6 | |
| 20260503001554 | 0 | 140 | 1.0 | 5.0 | 0.00 | 0.00 | 0.00 | 1004.8 | |
| 20260503000104 | 0 | 126 | 2.0 | 4.0 | 0.00 | 0.00 | 0.00 | 1004.9 | |
| 20260502234602 | 0 | 273 | 1.0 | 5.0 | 0.00 | 0.00 | 0.00 | 1005.1 | |
| 20260502233052 | 0 | 280 | 0.0 | 4.0 | 0.00 | 0.00 | 0.00 | 1005.2 | |
| 20260502231552 | 0 | 316 | 2.0 | 8.0 | 0.00 | 0.00 | 0.00 | 1005.4 | |
| 20260502230052 | 0 | 47 | 4.0 | 8.0 | 0.00 | 0.00 | 0.00 | 1005.5 | |
| 20260502224551 | 0 | 336 | 9.0 | 14.0 | 0.00 | 0.00 | 0.00 | 1005.5 | |
| 20260502223051 | 0 | 76 | 2.0 | 8.0 | 0.00 | 0.00 | 0.00 | 1005.8 | |
| 20260502221602 | 0 | 348 | 3.0 | 6.0 | 0.00 | 0.00 | 0.00 | 1005.9 | |
| 20260502220058 | 0 | 343 | 1.0 | 7.0 | 0.00 | 0.00 | 0.00 | 1006.2 | |
| 20260502214545 | 0 | 84 | 0.0 | 6.0 | 0.00 | 0.00 | 0.00 | 1006.3 | |
| 20260502213042 | 0 | 74 | 2.0 | 11.0 | 0.00 | 0.00 | 0.00 | 1006.6 | |
| 20260502211539 | 0 | 291 | 3.0 | 9.0 | 0.00 | 0.00 | 0.00 | 1006.7 | |
| 20260502210033 | 0 | 244 | 5.0 | 10.0 | 0.00 | 0.00 | 0.00 | 1006.7 | |
| 20260502204527 | 0 | 236 | 3.0 | 10.0 | 0.00 | 0.00 | 0.00 | 1006.9 | |
| 20260502203022 | 0 | 308 | 4.0 | 7.0 | 0.00 | 0.00 | 0.00 | 1006.9 | |
| 20260502201517 | 0 | 263 | 5.0 | 11.0 | 0.00 | 0.00 | 0.00 | 1007.1 | |
| 20260502200013 | 0 | 330 | 4.0 | 9.0 | 0.00 | 0.00 | 0.00 | 1007.5 | |
| 20260502194508 | 0 | 295 | 5.0 | 11.0 | 0.00 | 0.00 | 0.00 | 1007.7 | |
| 20260502193004 | 0 | 321 | 4.0 | 12.0 | 0.00 | 0.00 | 0.00 | 1007.9 | |
| 20260502191604 | 0 | 340 | 6.0 | 11.0 | 0.00 | 0.00 | 0.00 | 1008.0 | |
| 20260502190059 | 0 | 26 | 6.0 | 11.0 | 0.00 | 0.00 | 0.00 | 1008.3 | |
| 20260502184551 | 0 | 27 | 7.0 | 14.0 | 0.00 | 0.00 | 0.00 | 1008.3 | |
| 20260502183049 | 0 | 325 | 6.0 | 12.0 | 0.00 | 0.00 | 0.00 | 1008.3 | |
| 20260502181544 | 0 | 344 | 7.0 | 14.0 | 0.00 | 0.00 | 0.00 | 1008.4 | |
| 20260502163018 | 0 | 326 | 7.0 | 14.0 | 0.00 | 0.00 | 0.00 | 1008.1 | |
| 20260502161510 | 0 | 334 | 6.0 | 15.0 | 0.00 | 0.00 | 0.00 | 1008.0 | |
| 20260502151607 | 0 | 37 | 9.0 | 19.0 | 0.00 | 0.00 | 0.00 | 1007.7 | |
| 20260502123003 | 0 | 65 | 9.0 | 18.0 | 0.00 | 0.00 | 0.00 | 1007.0 | |
| 20260502121559 | 0 | 32 | 12.0 | 21.0 | 0.00 | 0.00 | 0.00 | 1006.9 | |
| 20260502114551 | 0 | 74 | 14.0 | 23.0 | 0.00 | 0.00 | 0.00 | 1006.3 | |
| 20260502113052 | 0 | 52 | 12.0 | 28.0 | 0.00 | 0.00 | 0.00 | 1006.2 | |
| 20260502111546 | 0 | 74 | 17.0 | 26.0 | 0.00 | 0.00 | 0.00 | 1005.9 | |
| 20260502110038 | 0 | 78 | 16.0 | 24.0 | 0.00 | 0.00 | 0.00 | 1006.5 | |
| 20260502104532 | 0 | 72 | 16.0 | 24.0 | 0.00 | 0.00 | 0.00 | 1005.7 | |
| 20260502103028 | 0 | 71 | 15.0 | 26.0 | 0.00 | 0.00 | 0.00 | 1005.5 | |
| 20260502101525 | 0 | 69 | 20.0 | 26.0 | 0.00 | 0.00 | 0.00 | 1005.2 | |
| 20260502091505 | 0 | 178 | 1.0 | 8.0 | 0.00 | 0.00 | 0.00 | 1004.5 | |
| 20260502090116 | 0 | 349 | 4.0 | 9.0 | 0.00 | 0.00 | 0.00 | 1004.3 | |
| 20260502071529 | 0 | 349 | 1.0 | 4.0 | 0.00 | 0.00 | 0.00 | 1004.0 | |
| 20260502070038 | 0 | 34 | 1.0 | 2.0 | 0.00 | 0.00 | 0.00 | 1004.1 | |
| 20260502064520 | 0 | 37 | 1.0 | 2.0 | 0.00 | 0.00 | 0.00 | 1004.1 | |
| 20260502063032 | 0 | 29 | 0.0 | 1.0 | 0.00 | 0.00 | 0.00 | 1004.1 | |
| 20260502061512 | 0 | 36 | 0.0 | 1.0 | 0.00 | 0.00 | 0.00 | 1004.1 | |
| 20260502060008 | 0 | 39 | 0.0 | 1.0 | 0.00 | 0.00 | 0.00 | 1004.2 | |
| 20260502054519 | 0 | 339 | 1.0 | 4.0 | 0.00 | 0.00 | 0.00 | 1004.1 | |
| 20260502053007 | 0 | 339 | 1.0 | 5.0 | 0.00 | 0.00 | 0.00 | 1004.2 | |
| 20260502051508 | 0 | 350 | 2.0 | 6.0 | 0.00 | 0.00 | 0.00 | 1004.3 | |
| 20260502050008 | 0 | 333 | 3.0 | 5.0 | 0.00 | 0.00 | 0.00 | 1004.3 | |
| 20260502044506 | 0 | 325 | 2.0 | 5.0 | 0.00 | 0.00 | 0.00 | 1004.4 | |
| 20260502043005 | 0 | 321 | 4.0 | 7.0 | 0.00 | 0.00 | 0.00 | 1004.2 | |
| 20260502041504 | 0 | 299 | 5.0 | 8.0 | 0.00 | 0.00 | 0.00 | 1004.1 | |
| 20260502040004 | 0 | 19 | 4.0 | 6.0 | 0.00 | 0.00 | 0.00 | 1003.8 | |
| 20260502034504 | 0 | 304 | 4.0 | 7.0 | 0.00 | 0.00 | 0.00 | 1003.9 | |
| 20260502033004 | 0 | 319 | 4.0 | 7.0 | 0.00 | 0.00 | 0.00 | 1003.7 | |
| 20260502031503 | 0 | 327 | 0.0 | 6.0 | 0.00 | 0.00 | 0.00 | 1003.6 | |
| 20260502030003 | 0 | 10 | 4.0 | 6.0 | 0.00 | 0.00 | 0.00 | 1003.3 | |
| 20260502024502 | 0 | 332 | 3.0 | 7.0 | 0.00 | 0.00 | 0.00 | 1003.3 | |
| 20260502023002 | 0 | 317 | 5.0 | 9.0 | 0.00 | 0.00 | 0.00 | 1003.1 | |
| 20260502021601 | 0 | 308 | 5.0 | 11.0 | 0.00 | 0.00 | 0.00 | 1002.9 | |
| 20260502014559 | 0 | 273 | 6.0 | 11.0 | 0.00 | 0.00 | 0.00 | 1002.8 | |
| 20260502013107 | 0 | 265 | 7.0 | 13.0 | 0.00 | 0.00 | 0.00 | 1002.8 | |
| 20260502011555 | 0 | 267 | 9.0 | 15.0 | 0.00 | 0.00 | 0.00 | 1002.8 | |
| 20260502010050 | 0 | 265 | 4.0 | 7.0 | 0.00 | 0.00 | 0.00 | 1002.8 | |
| 20260502004546 | 0 | 274 | 3.0 | 11.0 | 0.00 | 0.00 | 0.00 | 1003.0 |